Regional Weather Roundup
Issued by NWS

Home | Current Version | Previous Version | Text Only | Print | Product List | Glossary On
Versions: 1 2 3 4 5 6 7 8 9 10 11 12 13 14 15 16 17 18 19 20 21 22 23 24 25 26 27 28 29 30 31 32 33 34 35 36 37 38 39 40 41 42 43 44 45 46 47 48 49 50
000
ASUS46 KPQR 030410
RWROR

OREGON REGIONAL WEATHER ROUNDUP
NATIONAL WEATHER SERVICE PORTLAND OR
800 PM PST MON MAR 02 2015

NOTE: "FAIR" INDICATES FEW OR NO CLOUDS BELOW 12,000 FEET WITH
NO SIGNIFICANT WEATHER AND/OR OBSTRUCTIONS TO VISIBILITY.

ORZ001>013-030500-
NORTHWEST OREGON


CITY           SKY/WX    TMP DP  RH WIND       PRES   REMARKS
ASTORIA        MOCLDY    47  38  71 E3        30.10R
NEWPORT        FAIR      45  41  87 NE5       30.11R
PORTLAND       FAIR      48  32  53 NW14      30.04R
VANCOUVER WA   FAIR      49  29  46 NW6       30.04R
SCAPPOOSE      FAIR      48  30  49 NW13      30.05R
HILLSBORO      FAIR      44  31  60 NW9       30.06R
AURORA         FAIR      47  30  51 N6        30.05R
MCMINNVILLE    FAIR      46  33  60 N3        30.06R
SALEM          FAIR      48  35  60 NW8       30.05R
CORVALLIS      FAIR      43  39  87 NW8       30.06R
EUGENE         FAIR      43  38  82 NW7       30.05R
$$

ORZ021-028-030500-
SOUTHWEST OREGON


CITY           SKY/WX    TMP DP  RH WIND       PRES   REMARKS
NORTH BEND     FAIR      48  45  87 N7        30.08R
BROOKINGS      FAIR      50  36  58 VRB5      29.97R
ROSEBURG       CLOUDY    49  38  65 N3        30.03R
SEXTON SUMMIT  FOG       31  31 100 N8G17     29.93R VSB 3/4 WCI  23
MEDFORD        MOCLDY    46  32  58 NW5       29.99R
$$

ORZ014>016-041-030500-
COLUMBIA GORGE


CITY           SKY/WX    TMP DP  RH WIND       PRES   REMARKS
TROUTDALE      FAIR      50  29  44 NW6       30.02R
THE DALLES     CLOUDY    45  31  58 CALM      30.03R
$$

ORZ029>031-041-044-049-050-061>064-502-503-505>511-030500-
EASTERN OREGON


CITY           SKY/WX    TMP DP  RH WIND       PRES   REMARKS
REDMOND        CLOUDY    38  21  50 NW3       29.96R
BEND           MOCLDY    36  19  51 NW5       29.96R WCI  32
PRINEVILLE     CLOUDY    37  23  56 N6        29.96R WCI  33
KLAMATH FALLS  FAIR      34  24  67 W5        29.88R WCI  30
LAKEVIEW       CLOUDY    36  21  55 N14       29.87R WCI  27
HERMISTON      CLOUDY    44  28  53 SW3       30.02R
PENDLETON      MOCLDY    35  26  69 N3        29.98R
JOHN DAY       CLOUDY    33  25  72 NW7       29.92R WCI  27
MEACHAM        LGT SNOW  30  26  85 CALM      29.91R FOG
LA GRANDE      CLOUDY    36  19  51 W9G20     29.92R WCI  29
BAKER CITY     CLOUDY    30  24  78 NW16      29.89R WCI  19
BURNS          FAIR      29  21  72 NW6       29.87R WCI  23
ROME             N/A     37  28  70 NW8       29.80R WCI  31
ONTARIO        CLOUDY    41  24  51 NW22G33   29.83R
$$


USA.gov is the U.S. government's official web portal to all federal, state and local government web resources and services.